Location: Fxbg
(38.3018°N, 77.4708°W)
Time: 07:43:26
(UTC-04:00)

ISS - Visible Passes

Search period start: 25 March 2017 00:00
Search period end: 04 April 2017 00:00
Orbit: 399 x 409 km, 51.6° (Epoch: 25 March)

Date Brightness Start Highest point End Pass type
(mag) Time Alt. Az. Time Alt. Az. Time Alt. Az.
25 Mar -1.6 05:35:20 15° S 05:35:20 15° S 05:36:08 10° SSE visible
25 Mar -1.9 20:33:17 10° S 20:34:28 15° SSE 20:34:28 15° SSE visible
26 Mar -2.8 21:16:07 10° SW 21:18:22 41° WSW 21:18:22 41° WSW visible
27 Mar -3.6 20:23:54 10° SSW 20:27:01 46° SE 20:29:15 17° ENE visible
27 Mar -0.7 22:01:02 10° W 22:01:58 15° WNW 22:01:58 15° WNW visible
28 Mar -2.3 21:08:03 10° W 21:11:04 34° NNW 21:12:33 22° NNE visible
29 Mar -3.4 20:15:21 10° WSW 20:18:34 65° NW 20:21:49 10° NE visible
29 Mar -0.8 21:53:50 10° NW 21:55:33 13° NNW 21:55:36 13° NNW visible
30 Mar -1.2 21:00:27 10° WNW 21:02:52 19° NNW 21:05:16 10° NNE visible
31 Mar -1.9 20:07:20 10° W 20:10:14 29° NNW 20:13:08 10° NNE visible
01 Apr -0.9 20:53:19 10° NW 20:54:44 12° NNW 20:56:09 10° N visible
02 Apr -1.1 19:59:46 10° WNW 20:01:58 17° NNW 20:04:11 10° NNE visible
